Simultaneous Nadir Overpasses (SNOs) Predictions

Prediction of SNOs between LANDSAT-8 and NOAA-19 Satellite Orbit:

Table of predicted SNOs for the next 14.0 days since TLE Epoch: 7/5/2014
Index Date (LANDSAT-8) Time (LANDSAT-8) Lat,Lon (LANDSAT-8) SZA (LANDSAT-8 ) Date (NOAA-19) Time (NOAA-19) Lat,Lon (NOAA-19) SZA (NOAA-19 ) Distance(km) Time Diff (sec)
1 07/07/2014 07:59:24 72.11, 59.61 49.45 07/07/2014 07:58:17 72.10, 59.53 49.44 3.02 67
2 07/07/2014 08:48:55 -71.94,-133.05 130.72 07/07/2014 08:49:16 -71.96,-132.96 130.70 3.69 21
3 07/09/2014 13:33:12 -72.03, 156.03 130.38 07/09/2014 13:33:07 -72.01, 156.00 130.39 2.14 5
4 07/09/2014 14:22:48 71.45, -37.32 49.06 07/09/2014 14:23:57 71.44, -35.66 49.03 58.73 69
5 07/11/2014 18:17:30 -72.06, 85.00 130.07 07/11/2014 18:16:58 -72.07, 84.96 130.05 2.21 32
6 07/11/2014 19:06:57 71.96,-107.53 49.84 07/11/2014 19:07:56 71.94,-107.53 49.82 2.34 59
7 07/13/2014 23:01:48 -72.07, 13.95 129.74 07/13/2014 23:00:48 -72.09, 14.00 129.72 2.28 60
8 07/13/2014 23:51:15 71.97,-178.58 50.17 07/13/2014 23:51:46 71.98,-178.55 50.18 1.64 31
9 07/16/2014 03:45:58 -72.50, -56.34 128.97 07/16/2014 03:44:48 -72.61, -58.00 128.84 56.61 70
10 07/16/2014 04:35:32 72.03, 110.45 50.57 07/16/2014 04:35:36 72.03, 110.43 50.57 0.65 4
11 07/18/2014 09:19:49 72.08, 39.46 50.99 07/18/2014 09:19:26 72.09, 39.39 51.00 2.51 23




NCC Satellite Simultaneous Nadir Overpasses (SNOs) Prediction Service
